Hourly Weather Roundup
Issued by NWS Central Illinois

Home | Current Version | Previous Version | Text Only | Print | Product List | Glossary On
Versions: 1 2 3 4 5 6 7 8 9 10 11 12 13 14 15 16 17 18 19 20 21 22 23 24 25 26 27 28 29 30 31 32 33 34 35 36 37 38 39 40 41 42 43 44 45 46 47 48 49 50
000
NZUS43 KILX 301810
HWRILX

AREA WEATHER ROUNDUP
NATIONAL WEATHER SERVICE, LINCOLN IL
100 PM CDT THU OCT 30 2014


CITY           SKY/WX    TMP DP  RH WIND       PRES   REMARKS
BLOOMINGTON    PTSUNNY   51  39  63 S9        30.10F
6HR MIN TEMP:  33; 6HR MAX TEMP:  51;

CHAMPAIGN      MOSUNNY   53  35  50 S8        30.10F
6HR MIN TEMP:  30; 6HR MAX TEMP:  54;

DECATUR        CLOUDY    53  38  56 S8        30.10F
6HR MIN TEMP:  34; 6HR MAX TEMP:  54;

FLORA          SUNNY     55  37  51 S6        30.12F
6HR MIN TEMP:  33; 6HR MAX TEMP:  55;

GALESBURG      CLOUDY    44  39  83 E5        30.08F
JACKSONVILLE   LGT RAIN  51  43  74 S10       30.06F
6HR MIN TEMP:  41; 6HR MAX TEMP:  53;

LACON          CLOUDY    47  36  65 CALM      30.09F
6HR MIN TEMP:  30; 6HR MAX TEMP:  47;

LAWRENCEVILLE  SUNNY     54  31  41 VRB6      30.13F
6HR MIN TEMP:  33; 6HR MAX TEMP:  55;

LITCHFIELD     MOSUNNY   53  37  55 S12       30.09F
$$


CITY           SKY/WX    TMP DP  RH WIND       PRES   REMARKS
LINCOLN        CLOUDY    52  38  59 S8        30.08F
6HR MIN TEMP:  31; 6HR MAX TEMP:  54;

MACOMB         CLOUDY    50  40  68 SE10      30.08F
MATTOON        PTSUNNY   52  36  54 SW6       30.10F
6HR MIN TEMP:  33; 6HR MAX TEMP:  52;

MT CARMEL AP   SUNNY     57  36  44 CALM      30.12F
OLNEY-NOBLE AP SUNNY     54  36  50 CALM      30.12F
PARIS          SUNNY     53  36  51 SW6       30.12F
6HR MIN TEMP:  30; 6HR MAX TEMP:  53;

PEORIA         CLOUDY    50  38  63 SE3       30.09F
6HR MIN TEMP:  37; 6HR MAX TEMP:  50;

PONTIAC        CLOUDY    49  37  62 S5        30.12F
RANTOUL        MOSUNNY   53  35  51 S8        30.10F
6HR MIN TEMP:  32; 6HR MAX TEMP:  54;

ROBINSON       MOSUNNY   55  36  48 CALM      30.14F
6HR MIN TEMP:  32; 6HR MAX TEMP:  55;

SPRINGFIELD    CLOUDY    52  39  61 S7        30.10F
6HR MIN TEMP:  36; 6HR MAX TEMP:  53; 6HR PCP: TRACE;

TAYLORVILLE    CLOUDY    52  37  58 S7        30.09F
$$

...REGIONAL REPORTS...


CITY           SKY/WX    TMP DP  RH WIND       PRES   REMARKS
CHICAGO O`HARE CLOUDY    49  34  56 SW12G18   30.09F
KANKAKEE       NOT AVBL
MOLINE         CLOUDY    49  37  63 SE8       30.07F
MOUNT VERNON   MOSUNNY   57  39  51 S8        30.12F
PITTSFIELD     LGT RAIN  50  45  82 SE8       30.05F
QUINCY         CLOUDY    51  40  65 S12G22    30.00F
ROCKFORD       CLOUDY    52  35  52 VRB3      30.10F
$$


CITY           SKY/WX    TMP DP  RH WIND       PRES   REMARKS
BURLINGTON     CLOUDY    51  39  63 SE6       30.05F
CEDAR RAPIDS   MOSUNNY   53  38  56 SE10      30.04F
DES MOINES     MOSUNNY   59  37  44 VRB3      30.01F
KIRKSVILLE     SUNNY     58  42  55 VRB3      30.00F
OTTUMWA        MOSUNNY   57  38  48 S8        30.00F
ST LOUIS       PTSUNNY   58  36  43 S9        30.08F
$$


CITY           SKY/WX    TMP DP  RH WIND       PRES   REMARKS
TERRE HAUTE    MOSUNNY   52  35  52 S7        30.12F
EVANSVILLE     SUNNY     55  36  48 CALM      30.13F
INDIANAPOLIS   PTSUNNY   50  34  54 VRB5      30.12F
LAFAYETTE      MOSUNNY   50  33  52 VRB3      30.12F
MADISON        PTSUNNY   51  36  56 SW6       30.07F
MILWAUKEE      PTSUNNY   50  33  52 W8        30.08F
$$





USA.gov is the U.S. government's official web portal to all federal, state and local government web resources and services.